Location: Spruce Knob
(38.6995°N, 79.5330°W)
Time: 20:59:08
(UTC-04:00)

A-11 Canister half - Pass Details

Date: 01 February 2022
Orbit: 1513 x 1686 km, 47.2° (Epoch: 26 May)

Event Time Altitude Azimuth Distance (km) Brightness Sun altitude
Rises 19:38:39 0° 295° (WNW) 4,723 12.6 -23.3°
Reaches altitude 10° 19:41:48 10° 299° (WNW) 3,720 11.8 -24.0°
Maximum altitude 19:51:06 66° 21° (NNE) 1,638 8.9 -25.8°
Enters shadow 19:53:59 46° 82° (E) 1,940 9.0 -26.3°
Drops below altitude 10° 20:00:15 10° 103° (ESE) 3,667 - -27.6°
Sets 20:03:19 0° 106° (ESE) 4,653 - -28.2°
